Weather History for KMLP - August, 2014

Change the Weather History Date:

Saturday, August 2, 2014

  Actual Average (K3TH) Record (K3TH)
Temperature  
Mean Temperature 66 °F -  
Max Temperature 78 °F 85 °F 97 °F (1999)
Min Temperature 55 °F 57 °F 50 °F (2002)
Cooling Degree Days 2    
Growing Degree Days 16 (Base 50)    
Moisture  
Dew Point 46 °F    
Average Humidity 52    
Maximum Humidity 80    
Minimum Humidity 29    
Precipitation  
Precipitation 0.03 in - - ()
Sea Level Pressure  
Sea Level Pressure 29.99 in    
Wind  
Wind Speed 6 mph (SE)    
Max Wind Speed 10 mph    
Max Gust Speed 20 mph    
Visibility 10 miles    
Events Rain , Thunderstorm    
Averages and records for this station are not official NWS values.
T = Trace of Precipitation, MM = Missing Value Source: NWS Daily Summary

Daily Weather History Graph

Daily Weather History Graph

Search for Another Location

Airport or City:

Trip Planner

Search our weather history database for the weather conditions in past years. The results will help you decide how hot, cold, wet, or windy it might be!

Date:

Astronomy

Aug. 02, 2014 Rise Set
Actual Time 5:22 AM PDT 8:15 PM PDT
Civil Twilight 4:46 AM PDT 8:50 PM PDT
Nautical Twilight 4:00 AM PDT 9:36 PM PDT
Astronomical Twilight 3:05 AM PDT 10:30 PM PDT
Moon 12:18 PM PDT (8/2) 11:04 PM PDT (8/2)
Length of Visible Light 16h 04m
Length of Day
14h 52m
Waxing Crescent, 38% of the Moon is Illuminated
Aug 2
Waxing Crescent
Aug 3
First Quarter
Aug 10
Full
Aug 17
Last Quarter
Aug 25
New

Hourly Weather History & Observations

Time (PDT) Temp. Dew Point Humidity Pressure Visibility Wind Dir Wind Speed Gust Speed Precip Events Conditions
12:53 AM 62.1 °F 41.0 °F 46% 29.95 in 10.0 mi Variable 5.8 mph - N/A   Clear
1:53 AM 60.1 °F 43.0 °F 53% 29.95 in 10.0 mi East 6.9 mph 19.6 mph N/A   Clear
2:53 AM 60.1 °F 43.0 °F 53% 29.93 in 10.0 mi ESE 6.9 mph - N/A   Clear
3:53 AM 60.1 °F 44.1 °F 55% 29.94 in 10.0 mi ESE 5.8 mph - N/A   Clear
4:53 AM 59.0 °F 44.1 °F 58% 29.96 in 10.0 mi ESE 8.1 mph - N/A   Clear
5:53 AM 57.9 °F 44.1 °F 60% 29.98 in 10.0 mi ESE 6.9 mph - N/A   Clear
6:53 AM 59.0 °F 45.0 °F 60% 29.97 in 10.0 mi SSE 9.2 mph - N/A   Clear
7:53 AM 61.0 °F 46.0 °F 58% 29.98 in 10.0 mi SE 6.9 mph - N/A   Clear
8:53 AM 62.1 °F 46.9 °F 58% 29.97 in 10.0 mi SE 6.9 mph - N/A   Partly Cloudy
9:53 AM 64.0 °F 50.0 °F 60% 29.98 in 10.0 mi SSE 6.9 mph - N/A   Clear
10:53 AM 66.0 °F 50.0 °F 56% 29.98 in 10.0 mi Variable 4.6 mph - N/A   Clear
11:53 AM 70.0 °F 48.0 °F 46% 29.97 in 10.0 mi South 5.8 mph - N/A   Clear
12:53 PM 68.0 °F 50.0 °F 52% 29.97 in 7.0 mi Calm Calm - 0.00 in Rain Light Rain
1:53 PM 75.0 °F 46.0 °F 36% 29.95 in 10.0 mi Variable 3.5 mph - 0.00 in   Clear
2:53 PM 73.0 °F 42.1 °F 33% 29.94 in 10.0 mi Variable 3.5 mph - N/A   Clear
3:53 PM 78.1 °F 45.0 °F 31% 29.92 in 10.0 mi Variable 3.5 mph - N/A   Mostly Cloudy
4:53 PM 75.0 °F 41.0 °F 29% 29.92 in 10.0 mi Calm Calm - N/A   Clear
5:53 PM 73.0 °F 46.0 °F 38% 29.91 in 10.0 mi Variable 3.5 mph - N/A   Clear
6:53 PM 71.1 °F 44.1 °F 38% 29.91 in 10.0 mi SW 4.6 mph - N/A   Clear
7:53 PM 71.1 °F 43.0 °F 36% 29.92 in 10.0 mi Calm Calm - N/A   Clear
9:53 PM 63.0 °F 45.0 °F 52% 29.96 in 10.0 mi North 9.2 mph 18.4 mph N/A   Partly Cloudy
10:15 PM 63.0 °F 45.0 °F 52% 30.25 in 10.0 mi NNW 8.1 mph - N/A Thunderstorm Mostly Cloudy
10:38 PM 60.1 °F 46.0 °F 60% 30.25 in 10.0 mi NNW 8.1 mph - N/A Thunderstorm Thunderstorm
10:53 PM 57.0 °F 48.0 °F 72% 30.00 in 8.0 mi WSW 10.4 mph 19.6 mph 0.02 in Rain , Thunderstorm Rain
11:09 PM 55.9 °F 50.0 °F 80% 30.27 in 10.0 mi SSE 9.2 mph 16.1 mph 0.00 in Rain , Thunderstorm Light Thunderstorms and Rain
11:53 PM 57.0 °F 48.0 °F 72% 29.95 in 10.0 mi NW 6.9 mph - 0.01 in Rain Light Rain